Location: Altmannshof
(49.4893°N, 11.8208°E)
Time: 04:26:46
(UTC+00:00)

Daily predictions for brighter satellites

Satellite Brightness Start Highest point End
(mag) Time Altitude Azimuth Time Altitude Azimuth Time Altitude Azimuth
Cosmos 1825 2.1 00:13:02 33° S 00:14:38 76° E 00:18:25 10° NNE
ATLAS CENTAUR R/B 4.3 00:08:24 10° WSW 00:14:48 74° NNW 00:32:42 10° ENE
Cosmos 540 Rocket 3.9 00:15:11 24° S 00:18:03 52° ESE 00:23:02 10° NNE
Cosmos 990 Rocket 4.3 00:14:52 10° NNW 00:19:53 50° WSW 00:22:37 25° S
Cosmos 1408 3.0 00:19:18 30° SW 00:20:48 51° WNW 00:24:25 10° N
Cosmos 1437 4.3 00:20:11 10° NNE 00:22:36 25° ENE 00:24:28 14° SE
Cosmos 1242 Rocket 3.1 00:20:17 10° N 00:23:50 55° ENE 00:26:09 20° SSE
SL-16 R/B 3.3 00:19:56 12° WSW 00:24:51 39° NW 00:30:12 10° NNE
Cosmos 405 Rocket 2.6 00:23:36 32° SSW 00:25:11 72° WNW 00:28:53 10° N
Cosmos 1656 Rocket 3.7 00:20:01 10° NNW 00:25:44 74° WSW 00:30:16 16° SSE
Cosmos 2221 2.5 00:21:26 10° N 00:25:46 84° E 00:28:23 23° SSE
Cosmos 841 Rocket 3.9 00:23:03 23° S 00:26:06 53° ESE 00:31:06 10° NNE
Cosmos 2058 2.9 00:24:22 28° S 00:26:28 78° E 00:30:34 10° NNE
USA 229 DEB 3.6 00:22:35 18° SW 00:27:32 85° NW 00:34:30 10° NE
USA 229 3.6 00:22:43 19° SW 00:27:38 86° NW 00:34:37 10° NE
Cosmos 2237 Rocket 4.4 00:24:35 10° W 00:28:34 19° NW 00:32:34 10° N
X-37B 1.2 00:28:47 36° S 00:28:47 36° S 00:31:35 10° ESE
Cosmos 1898 Rocket 3.8 00:28:08 10° NNW 00:33:11 49° WSW 00:36:10 23° S
Cosmos 1937 Rocket 3.6 00:28:15 10° NNW 00:33:34 66° WSW 00:37:19 19° S
Nadezhda 4 Rocket 4.0 00:30:48 21° S 00:35:05 85° E 00:41:14 10° N
Cosmos 2369 Rocket 2.7 00:30:21 10° NW 00:35:42 42° WSW 00:38:58 22° SSW
NOSS 3-1 (C) 3.9 00:31:10 11° WSW 00:36:24 55° NW 00:42:54 10° NE
Aureole 3 Rocket 3.5 00:33:41 10° N 00:37:28 62° E 00:41:59 13° SSE
YAOGAN 11 4.5 00:35:34 25° SSW 00:37:54 51° W 00:42:18 10° NNW
SJ 16-02 3.4 00:36:55 10° WNW 00:38:54 13° W 00:40:01 12° WSW
USA 307 4.1 00:38:07 22° S 00:39:37 28° SE 00:43:16 10° ENE
FALCON 9 DEB 3.9 00:37:20 10° WNW 00:40:24 50° NNE 00:43:27 10° E
CREW DRAGON DEMO-1 DEB 2.1 00:40:05 40° WSW 00:40:49 85° N 00:43:16 10° ENE
ARGOS Delta rocket 4.4 00:37:18 10° NNE 00:42:48 69° E 00:46:49 19° S
USA 215 4.1 00:38:07 10° ENE 00:44:26 52° NNW 00:50:43 10° W
NOSS 3-1 (A) 3.5 00:42:42 16° SW 00:47:12 70° NW 00:53:45 10° NE
ATLAS 5 CENTAUR R/B 2.5 00:48:04 20° S 00:50:08 33° ESE 00:54:03 10° ENE
CZ-4 R/B 4.0 00:45:53 10° N 00:50:29 60° WNW 00:53:33 21° SW
Helios 1B rocket 3.1 00:47:17 10° NNE 00:51:16 47° E 00:54:08 17° S
USA 308 3.7 00:53:26 22° S 00:55:27 35° SE 00:59:21 10° ENE
Cosmos 1633 2.7 00:53:22 22° S 00:55:28 63° E 00:58:59 10° NNE
Cosmos 1814 Rocket 4.2 00:51:51 19° S 00:55:30 64° ESE 01:00:37 10° NNE
ADEOS Rocket 3.8 00:48:36 10° SSE 00:55:42 62° ENE 01:02:08 10° N
FALCON 9 DEB 3.2 00:54:27 10° WNW 00:57:32 66° NNE 01:00:36 10° ESE
CZ-3B R/B 3.2 00:49:20 10° WNW 00:58:07 53° N 01:01:06 10° E
UNK 3.7 00:54:25 14° SSE 00:58:20 87° WSW 01:03:01 10° NNW
Cosmos 1606 2.8 00:58:00 10° NNW 01:01:49 61° W 01:04:12 21° S
Helios 1A 3.9 01:00:06 21° SW 01:02:05 31° W 01:05:52 10° NNW
FALCON 9 DEB 3.4 01:01:12 10° WNW 01:04:19 62° NNE 01:07:23 10° E
Cosmos 1570 Rocket 4.1 01:01:44 19° SSW 01:05:33 76° ESE 01:10:48 10° NNE
SL-16 R/B 2.5 00:59:52 12° S 01:05:41 72° WSW 01:11:53 10° NNW
Cosmos 1933 3.9 01:03:14 10° N 01:07:17 57° ENE 01:11:19 10° SSE
FALCON 9 DEB 3.1 01:04:40 10° WNW 01:07:47 72° NNE 01:10:52 10° ESE
Cosmos 372 Rocket 4.1 01:03:22 10° NNW 01:08:31 57° WSW 01:13:10 13° S
Cosmos 1125 Rocket 4.2 01:06:00 10° NNW 01:11:12 57° ENE 01:16:24 10° SE
USA 290 2.3 01:11:15 22° S 01:13:09 69° ESE 01:16:21 10° NNE
USA 305 3.3 01:10:32 20° SSW 01:13:12 49° SE 01:17:19 10° ENE
Lacrosse 4 Rocket 1.3 01:10:55 10° NW 01:15:01 68° WSW 01:19:01 10° SSE
Meteor 1-28 Rocket 4.2 01:12:17 10° SE 01:15:55 46° ENE 01:19:36 10° N
CZ-4C R/B 4.2 01:13:18 10° SE 01:15:57 14° ESE 01:18:50 10° ENE
Cosmos 1092 Rocket 4.0 01:11:05 16° SSW 01:16:08 80° W 01:22:19 10° N
Cosmos 1151 Rocket 4.3 01:12:34 10° N 01:16:36 39° ENE 01:20:34 10° SE
Cosmos 2098 Rocket 3.9 01:15:08 17° SW 01:19:00 45° WNW 01:23:13 10° N
CENTAUR R/B 4.3 01:11:34 10° NW 01:19:02 48° NNE 01:27:26 10° ESE
Resurs 1-4 Rocket 2.2 01:14:43 10° NNE 01:20:02 72° WNW 01:24:23 16° SSW
BREEZE-M R/B 3.3 01:18:12 18° SSW 01:20:25 40° SSE 01:25:43 10° ENE
Cosmos 1437 Rocket 4.4 01:17:46 10° NW 01:20:36 20° W 01:22:18 15° WSW
Cosmos 2208 Rocket 4.1 01:16:33 16° SSW 01:20:54 83° ESE 01:26:24 10° NNE
NOSS 5 (C) 4.2 01:18:13 10° NW 01:21:16 80° SW 01:24:54 10° SE
Meteor 1-29 3.5 01:20:44 10° NNE 01:24:06 53° E 01:26:57 13° S
SL-4 R/B 2.1 01:23:09 10° WNW 01:26:52 66° N 01:30:20 10° E
MINOTAUR 4 R/B 4.0 01:26:32 11° S 01:29:51 73° WSW 01:33:24 10° NNW
Landsat 4 4.1 01:26:12 10° NNE 01:29:57 58° ESE 01:33:22 12° S
NPP 3.7 01:25:50 10° NNE 01:31:13 73° WNW 01:35:57 14° SSW
ADEOS II 2.3 01:26:26 10° NNE 01:31:43 72° ESE 01:36:49 11° S
NOSS 2-2 (D) 3.0 01:30:21 17° SW 01:32:51 78° SE 01:36:40 10° NE
USA 306 3.0 01:32:05 15° SW 01:35:34 66° SSE 01:39:46 10° ENE
Lacrosse 5 rocket 2.2 01:32:08 10° NW 01:35:36 46° NNE 01:39:09 10° E
Cosmos 921 Rocket 3.6 01:32:38 15° SW 01:35:53 44° WNW 01:39:56 10° N
Meteor 2-3 Rocket 3.8 01:31:29 11° S 01:36:57 79° E 01:42:34 10° NNE
FALCON 9 DEB 3.8 01:34:02 10° W 01:37:04 30° SW 01:40:05 10° SSE
Okean 3 Rocket 4.5 01:33:20 10° SSE 01:37:31 46° E 01:41:43 10° NNE
Cosmos 1943 4.1 01:33:25 10° WSW 01:38:36 40° NW 01:43:57 10° NNE
CZ-2D R/B 2.5 01:33:39 10° N 01:38:43 53° WNW 01:43:15 13° SW
IRIDIUM 106 4.4 01:34:36 10° N 01:39:51 85° E 01:45:05 10° S
Alouette 2 Rocket 3.6 01:36:47 10° N 01:40:20 65° ENE 01:44:19 10° SSE
ASTEX 1 4.0 01:41:03 10° SSE 01:45:54 59° E 01:50:45 10° N
IDEFIX/ARIANE 42P 3.2 01:40:57 10° NNE 01:46:06 54° E 01:51:12 10° S
Cosmos 2151 3.3 01:44:56 13° SSW 01:48:32 53° WNW 01:52:40 10° N
AQUA 4.1 01:46:10 10° N 01:50:50 56° WNW 01:55:17 11° SSW
EXPRESS MD2 4.3 01:43:06 10° WSW 01:52:00 76° SSE 01:56:13 10° E
Meteor 1-26 Rocket 4.4 01:49:15 10° NNW 01:55:03 69° W 02:00:58 10° S
DELTA 2 R/B (1) 4.5 01:58:31 10° WSW 02:03:14 29° S 02:07:59 10° SE
Cosmos 1656 4.1 01:58:06 10° NNW 02:03:50 71° ENE 02:09:30 10° SE
X-37B 1.7 02:02:12 10° WSW 02:04:51 24° SSW 02:07:30 10° SE
CBERS-1 4.1 02:00:15 10° NNE 02:05:26 87° ESE 02:10:35 10° SSW
IRS-1D 3.6 02:00:30 10° NNE 02:05:40 77° WNW 02:10:42 10° SSW
BREEZE-M DEB (TANK) 1.3 02:04:44 10° W 02:06:59 55° SSW 02:09:38 10° ESE
Cosmos 1812 2.9 02:05:47 10° N 02:09:39 77° E 02:13:28 10° SSE
Cosmos 1553 Rocket 4.2 02:03:39 10° NNW 02:09:48 56° W 02:15:49 10° SSW
NOSS 2-2 (E) 4.1 02:08:33 10° WSW 02:11:52 40° NW 02:15:43 10° NE
Cosmos 2292 Rocket 3.4 02:09:55 10° SSW 02:12:42 37° WNW 02:15:34 10° N
SL-08 R/B 3.8 02:08:52 10° SSE 02:13:28 64° ENE 02:18:13 10° N
CZ-2C R/B 4.4 02:09:54 10° NE 02:14:05 26° E 02:18:07 10° SSE
CREW DRAGON DEMO-1 DEB 3.3 02:12:14 10° WNW 02:14:37 46° N 02:17:01 10° ENE
Cosmos 1697 Rocket 3.8 02:09:44 10° NNW 02:15:15 50° NE 02:20:44 10° SE
S3M 4.0 02:09:48 10° NNW 02:15:56 72° W 02:22:06 10° S
FALCON 9 DEB 3.1 02:13:05 10° WNW 02:16:08 48° SSW 02:19:10 10° SE
Cosmos 1782 3.3 02:12:40 10° NNW 02:16:29 43° W 02:20:17 10° SSW
USA 281 3.2 02:11:23 10° SSE 02:17:55 68° WSW 02:24:30 10° NNW
MSX 4.1 02:12:41 10° NNE 02:18:30 74° ESE 02:24:14 10° S
Cosmos 1271 Rocket 2.7 02:14:48 10° NNW 02:18:30 59° W 02:22:12 10° S
USA 307 3.0 02:15:02 10° WSW 02:19:18 79° NNW 02:23:34 10° ENE
USA 215 4.4 02:20:38 10° ENE 02:26:50 48° N 02:33:03 10° WNW
